Starlink 3623

operational
NORAD ID: 51772 Int'l Des: 2022-017 Owner: SPXS Country: US Constellation: starlink
LEOCIRCULAR

关于 Starlink 3623

正在加载描述...

实时位置

正在加载3D地球...

即将过境

高度历史

Altitude vs Time

uPlot chart will show altitude changes over time

两行轨道根数

1 51772U 22017E 25353.38572032 -.00001533 00000-0 -78253-4 0 9995
2 51772 53.2207 339.6176 0001509 101.9105 258.2057 15.08837582210470
Epoch: Dec 19, 2025 • Age: 17 hours

当前状态

高度 557.5 km
速度 7.58 km/s
星下点 -48.71°S, 153.05°E
发射日期 Feb 25, 2022
运行时间 3.8 years
类型 internet

技术详情

分类 Payload
质量 297.00 kg
干质量 275.00 kg
总质量 297.00 kg
长度 0.20 m
直径 2.80 m
跨度 9.00 m
形状 Box + pan
制造商 SPXS
平台类型 Starlink
阶段状态 In Orbit
所有者/国家 SPXS/US

大型星座

Loading constellations...